MOLNIYA 3-20

Last updated on Tue Jun 27 2023 00:03:05 GMT+0000 (Coordinated Universal Time)

1 13875U 83015A 23176.79122550 -.00001309 00000+0 -85159-3 0 9996 2 13875 62.2696 293.8046 7339006 262.0061 17.1480 2.00527393231248
UTC large
Height (km)
Speed (km/s)
/
Latitude / Longitude
Inclination (degrees)
Orbital Period (minutes)
Azimuth
Elevation
Range (km)
Doppler Factor

Next 0 passes for location: London (51.5072 / 0.1276)

Sorry there are no passes over London.